Waukesha, WI

4:13 AM CDT on May 25, 2017 (GMT -0500)
Waukesha County

Weather History for KUES - September, 2012

Change the Weather History Date:

Friday, September 7, 2012

  Actual Average Record
Temperature  
Mean Temperature 61 °F -  
Max Temperature 71 °F 78 °F 96 °F (1985)
Min Temperature 51 °F 56 °F 38 °F (1956)
Degree Days  
Heating Degree Days 4    
Growing Degree Days 11 (Base 50)    
Moisture  
Dew Point 57 °F    
Average Humidity 91    
Maximum Humidity 100    
Minimum Humidity 60    
Precipitation  
Precipitation 0.00 in - - ()
Sea Level Pressure  
Sea Level Pressure 29.88 in    
Wind  
Wind Speed 2 mph (NW)    
Max Wind Speed 16 mph    
Max Gust Speed -    
Visibility 7 miles    
Events Rain    
Averages and records for this station are not official NWS values.
T = Trace of Precipitation, MM = Missing Value Source: NWS Daily Summary

Daily Weather History Graph

Daily Weather History Graph

Search for Another Location

Airport or City:

Trip Planner

Search our weather history database for the weather conditions in past years. The results will help you decide how hot, cold, wet, or windy it might be!

Date:

Astronomy

Sep. 07, 2012 Rise Set
Actual Time 6:24 AM CDT 7:16 PM CDT
Civil Twilight 5:55 AM CDT 7:45 PM CDT
Nautical Twilight 5:21 AM CDT 8:19 PM CDT
Astronomical Twilight 4:45 AM CDT 8:54 PM CDT
Moon 11:00 PM CDT (9/7) 1:27 PM CDT (9/7)
Length of Visible Light 13h 49m
Length of Day
12h 51m
Waning Gibbous, 58% of the Moon is Illuminated
Sep 7
Waning Gibbous
Sep 8
Last Quarter
Sep 15
New
Sep 22
First Quarter
Sep 29
Full

Hourly Weather History & Observations

Time (CDT) Temp. Dew Point Humidity Pressure Visibility Wind Dir Wind Speed Gust Speed Precip Events Conditions
12:15 AM 60.8 °F 59.0 °F 94% 29.94 in 7.0 mi Calm Calm - N/A   Clear
12:35 AM 59.0 °F 59.0 °F 100% 29.93 in 4.0 mi Calm Calm - N/A   Clear
1:15 AM 60.8 °F 59.0 °F 94% 29.92 in 7.0 mi Calm Calm - N/A   Clear
1:35 AM 60.8 °F 59.0 °F 94% 29.92 in 7.0 mi Calm Calm - N/A   Clear
1:55 AM 60.8 °F 59.0 °F 94% 29.92 in 5.0 mi Calm Calm - N/A   Clear
2:15 AM 59.0 °F 59.0 °F 100% 29.91 in 2.5 mi Calm Calm - N/A   Clear
2:35 AM 60.8 °F 59.0 °F 94% 29.90 in 5.0 mi Calm Calm - N/A   Clear
2:55 AM 59.0 °F 59.0 °F 100% 29.90 in 5.0 mi Calm Calm - N/A   Clear
3:15 AM 59.0 °F 57.2 °F 94% 29.90 in 1.8 mi Calm Calm - N/A   Mist
3:35 AM 60.8 °F 59.0 °F 94% 29.91 in 5.0 mi Calm Calm - N/A   Clear
3:55 AM 59.0 °F 59.0 °F 100% 29.90 in 7.0 mi Calm Calm - N/A   Clear
4:15 AM 59.0 °F 57.2 °F 94% 29.90 in 5.0 mi Calm Calm - N/A   Clear
4:35 AM 59.0 °F 59.0 °F 100% 29.91 in 5.0 mi Calm Calm - N/A   Clear
4:55 AM 60.8 °F 60.8 °F 100% 29.89 in 4.0 mi Calm Calm - N/A   Scattered Clouds
5:15 AM 59.0 °F 59.0 °F 100% 29.90 in 3.0 mi Calm Calm - N/A   Scattered Clouds
5:35 AM 60.8 °F 60.8 °F 100% 29.90 in 5.0 mi South 3.5 mph - N/A   Scattered Clouds
5:45 AM 62.6 °F 62.6 °F 100% 29.89 in 5.0 mi SE 4.6 mph - N/A Rain Light Rain
6:45 AM 64.4 °F 62.6 °F 94% 29.90 in 5.0 mi Calm Calm - N/A   Overcast
7:45 AM 64.4 °F 62.6 °F 94% 29.90 in 7.0 mi SSE 6.9 mph - N/A Rain Light Rain
8:45 AM 66.2 °F 60.8 °F 83% 29.87 in 10.0 mi SSE 4.6 mph - N/A   Overcast
9:45 AM 66.2 °F 60.8 °F 83% 29.88 in 10.0 mi South 3.5 mph - N/A   Mostly Cloudy
10:45 AM 69.8 °F 60.8 °F 73% 29.87 in 10.0 mi WNW 4.6 mph - N/A   Clear
11:45 AM 71.6 °F 59.0 °F 64% 29.86 in 10.0 mi Calm Calm - N/A   Scattered Clouds
12:45 PM 69.8 °F 59.0 °F 68% 29.83 in 10.0 mi Calm Calm - N/A   Mostly Cloudy
1:45 PM 71.6 °F 57.2 °F 60% 29.81 in 10.0 mi North 4.6 mph - N/A   Overcast
2:45 PM 66.2 °F 59.0 °F 78% 29.83 in 10.0 mi North 16.1 mph - N/A   Overcast
3:45 PM 59.0 °F 53.6 °F 82% 29.86 in 7.0 mi North 16.1 mph - N/A Rain Light Rain
4:45 PM 57.2 °F 53.6 °F 88% 29.86 in 10.0 mi North 6.9 mph - N/A   Mostly Cloudy
5:45 PM 57.2 °F 55.4 °F 94% 29.86 in 10.0 mi North 5.8 mph - N/A   Scattered Clouds
6:45 PM 57.2 °F 53.6 °F 88% 29.85 in 10.0 mi NNW 5.8 mph - N/A   Mostly Cloudy
7:45 PM 57.2 °F 53.6 °F 88% 29.85 in 10.0 mi NNW 6.9 mph - N/A   Mostly Cloudy
8:45 PM 55.4 °F 53.6 °F 94% 29.87 in 10.0 mi NNW 6.9 mph - N/A   Clear
9:15 PM 53.6 °F 51.8 °F 94% 29.88 in 10.0 mi WNW 8.1 mph - N/A   Scattered Clouds
9:35 PM 53.6 °F 53.6 °F 100% 29.87 in 10.0 mi WNW 5.8 mph - N/A   Overcast
10:35 PM 53.6 °F 51.8 °F 94% 29.89 in 10.0 mi NW 5.8 mph - N/A   Scattered Clouds
11:15 PM 53.6 °F 51.8 °F 94% 29.87 in 10.0 mi NNW 3.5 mph - N/A   Clear
11:35 PM 51.8 °F 50.0 °F 94% 29.87 in 10.0 mi NW 3.5 mph - N/A   Clear
11:55 PM 51.8 °F 50.0 °F 94% 29.87 in 10.0 mi NW 5.8 mph - N/A   Clear